SCP
0 0 0 0 0 0 0 0 0 0 0 0 0 0 0 0 0 0 0 0 0 0 0 0 0 0 0 0 0 0 0 0 0 0 0 0 0 0 0 0 0 0 0 0 0 0 0 0 0 0 0 0 0 0
0 0 0 0 0 0 0 0 0 0 0 0 0 -0 0 0 0 0 -0 0 0 0 0 0 0 0 0 0 0 0 0 0 0 0 0 0 0 0 0 0 0 0 0 0 0 0 0 0 0 0 0 0 0 0
0 0 0 0 0 0 0 0 0 0 0 0 0 -0 -0 0 0 0 -0 0 0 0 0 0 0 0 0 0 0 0 0 0 0 0 0 0 0 0 0 0 0 0 0 0 0 0 0 0 0 0 0 0 0 0
0 0 0 0 0 0 0 0 0 0 0 0 0 -0 -0 -0 0 0 0 0 0 0 0 0 0 0 0 0 0 0 0 0 0 0 0 0 0 0 0 0 0 0 0 0 0 0 0 0 0 0 0 0 0 0
0 0 0 0 0 0 0 0 0 -0 -0 0 0 -0 -0 0 0 0 -0 0 -0 0 0 0 0 0 0 0 0 0 0 0 0 0 0 0 0 0 0 0 0 0 0 0 0 0 0 0 0 0 0 0 0 0
0 0 0 0 0 0 0 0 0 0 -0 -0 -0 -0 -0 0 0 -0 -0 0 0 0 0 0 0 0 0 0 0 0 0 0 0 0 0 0 0 0 0 0 0 0 0 0 0 0 0 0 0 0 0 0 0 0
0 0 0 0 0 0 0 -0 -0 -0 -0 -0 -0 -0 -0 -0 -0 0 0 0 0 0 0 0 0 0 0 0 0 0 0 0 0 0 0 0 0 0 0 0 0 0 0 0 0 0 0 0 0 0 0 0 0 0
0 0 0 -0 0 0 -0 -0 -0 -0 -0 -0 -0 -0 0 0 0 0 0 0 0 0 0 0 0 0 0 0 0 0 0 0 0 0 0 0 0 0 0 0 0 0 0 0 0 0 0 0 0 0 0 0 0 0
0 0 -0 0 -0 -0 -0 -0 -0 -0 -0 -0 -0 -0 0 -0 0 0 0 0 0 0 0 0 0 0 0 0 0 0 0 0 0 0 0 0 0 0 0 0 0 0 0 0 0 0 0 0 0 0 0 0 0 0
0 0 0 -0 -0 -0 -0 -0 -0 -0 -0 -0 -0 0 0 0 0 0 0 0 0 0 0 0 0 0 0 0 0 0 0 0 0 0 0 0 0 0 -0 0 0 0 0 0 0 0 0 0 0 0 0 0 0 0
-0 -0 -0 -0 -0 -0 -0 -0 -0 -0 0 0 0 0 0 0 0 0 0 0 0 0 0 0 0 0 0 0 0 0 0 0 0 0 0 0 0 0 0 0 0 0 0 0 0 0 0 0 0 0 0 0 0 0
0 -0 -0 -0 -0 -0 -0 -0 -0 0 0 0 -0 0 0 0 0 0 0 0 0 0 0 0 0 0 0 0 0 0 0 0 0 0 0 0 0 0 0 0 0 0 0 0 0 0 0 0 0 0 0 0 0 0
0 -0 -0 -0 -0 -0 -0 -0 -0 -0 0 -0 0 0 0 0 0 0 0 0 0 0 0 0 0 0 0 0 0 0 0 0 0 0 0 0 0 0 -0 -0 -0 -0 -0 -0 -0 -0 0 0 -0 -0 0 0 0 0
-0 0 -0 -0 -0 -0 -0 -0 -0 -0 0 0 0 0 0 0 0 0 0 0 0 0 0 0 0 0 0 0 0 0 0 0 0 0 0 0 0 0 -0 -0 -0 -0 -0 -0 -0 -0 -0 -0 -0 -0 0 0 0 -0
-0 -0 -0 -0 -0 -0 -0 0 -0 0 0 0 0 0 0 0 0 -0 0 0 0 0 -0 0 0 0 0 0 0 0 0 0 0 0 0 0 0 0 0 -0 -0 -0 -0 -0 -0 -0 -0 -0 -0 0 0 -0 -0 -0
-0 -0 0 -0 -0 -0 0 0 0 0 0 0 0 0 0 0 -0 0 0 0 0 -0 -0 -0 0 0 -0 -0 -0 -0 0 0 0 0 0 0 0 -0 -0 -0 -0 -0 -0 -0 -0 -0 -0 -0 0 0 -0 0 0 -0
-0 0 -0 -0 -0 -0 -0 0 0 0 0 0 0 0 0 0 0 0 0 0 -0 -0 0 -0 0 0 -0 0 0 0 0 0 0 0 0 0 -0 -0 -0 -0 -0 -0 -0 -0 -0 -0 0 0 -0 -0 -0 0 -0 -0
0 -0 -0 -0 -0 0 -0 0 0 0 0 0 0 0 0 0 0 0 -0 0 -0 0 0 -0 -0 0 0 0 0 0 0 0 -0 -0 -0 0 -0 -0 -0 -0 -0 -0 -0 -0 -0 -0 -0 -0 -0 -0 -0 -0 -0 0
-0 -0 -0 -0 -0 -0 -0 0 0 0 0 0 0 0 0 0 0 0 0 0 -0 -0 -0 0 0 0 0 0 0 0 -0 -0 -0 -0 0 0 -0 -0 -0 0 -0 -0 -0 -0 -0 -0 -0 -0 0 0 0 0 0 0
-0 -0 -0 -0 0 0 0 0 0 -0 0 0 0 0 0 0 0 -0 -0 0 -0 -0 -0 0 0 -0 0 0 0 -0 -0 -0 -0 -0 0 0 0 0 0 0 0 0 -0 -0 -0 0 -0 -0 0 0 0 0 0 0
0 0 0 0 -0 0 0 0 0 0 0 0 0 0 0 0 0 -0 -0 -0 0 -0 0 0 0 0 0 0 -0 -0 -0 0 0 0 0 0 0 0 0 0 0 0 0 -0 0 0 0 0 0 0 0 0 0 0
0 0 0 0 0 -0 -0 0 -0 0 0 0 0 0 0 0 0 0 -0 0 -0 -0 0 0 0 0 0 -0 0 -0 -0 0 0 0 0 -0 0 0 0 -0 0 0 0 0 0 0 0 0 0 0 0 0 0 0
0 0 0 0 0 -0 -0 -0 0 0 0 0 0 0 0 0 0 -0 -0 -0 -0 -0 0 0 0 0 0 -0 -0 -0 -0 0 0 0 0 0 0 -0 -0 -0 0 0 0 0 0 0 0 0 0 0 0 0 0 0
0 0 0 -0 0 -0 0 0 0 0 0 0 0 0 -0 -0 -0 -0 -0 -0 0 -0 0 0 0 0 0 0 -0 -0 -0 -0 -0 -0 -0 -0 0 0 0 0 0 0 0 0 0 0 0 0 0 0 0 0 0 0
0 0 -0 -0 0 0 0 0 0 0 0 0 0 -0 -0 -0 -0 -0 -0 -0 0 -0 0 0 0 0 0 0 0 0 -0 -0 -0 -0 0 -0 -0 0 0 0 0 0 0 -0 0 0 0 0 0 0 0 0 0 0
0 0 -0 0 0 0 0 0 0 0 0 0 -0 0 0 -0 -0 -0 -0 -0 0 0 0 0 0 0 0 0 0 0 0 -0 -0 -0 0 0 -0 -0 -0 -0 -0 0 0 0 0 0 0 0 0 0 0 0 0 0
0 0 0 0 0 0 0 0 0 0 0 0 0 -0 -0 -0 -0 -0 0 0 0 0 0 0 0 0 0 0 -0 -0 -0 -0 -0 0 0 0 -0 -0 -0 -0 -0 0 0 0 0 0 0 0 0 0 0 0 0 0
0 0 0 0 0 0 0 0 0 0 0 0 0 -0 -0 -0 -0 0 0 0 0 0 0 0 0 0 0 0 -0 -0 -0 -0 -0 -0 -0 -0 -0 -0 0 0 0 0 0 0 0 0 0 0 0 0 0 0 0 0
0 0 0 0 0 0 0 -0 -0 -0 -0 -0 0 -0 -0 0 0 0 0 0 0 0 0 0 0 0 0 0 -0 -0 -0 -0 -0 -0 -0 -0 0 0 0 0 0 0 0 0 0 0 0 0 0 0 0 0 0 0
0 0 0 0 0 0 -0 -0 -0 -0 -0 -0 0 0 0 0 0 0 0 0 0 0 0 0 0 0 0 0 0 0 0 0 0 0 0 0 0 0 0 0 0 0 0 0 0 0 0 0 0 0 0 0 0 0
0 0 0 0 0 0 0 0 0 0 -0 0 0 0 0 0 0 0 0 0 0 0 0 0 0 0 0 0 0 0 0 0 0 0 0 0 0 0 0 0 0 0 0 0 0 0 0 0 0 0 0 0 0 0
0 0 -0 -0 0 0 0 -0 -0 -0 -0 0 0 0 0 0 0 0 0 0 0 0 0 0 0 0 0 0 0 0 0 0 0 0 0 0 0 0 0 0 0 0 0 0 0 0 0 0 0 0 0 0 0 0
0 0 0 0 0 -0 -0 -0 -0 -0 0 0 0 0 0 0 0 0 0 0 0 0 0 0 0 0 0 0 0 0 0 0 0 0 0 0 0 0 0 0 0 0 0 0 0 0 0 0 0 0 0 0 0 0
Wind_Speed_500mb
53 52 52 46 39 41 42 44 43 40 40 33 33 30 26 22 22 26 27 17 22 10 30 31 27 15 4 5 7 4 4 4 6 4 4 3 3 3 1 3 10 10 11 6 9 7 12 2 6 4 10 12 21 17
51 51 47 46 40 39 38 42 44 41 40 35 33 32 32 23 18 23 26 11 21 26 12 13 18 27 23 17 4 5 3 4 4 6 2 3 3 4 2 2 10 6 10 8 13 9 7 6 14 13 16 25 18 19
47 45 42 43 41 41 38 37 39 41 39 36 36 31 30 30 24 21 25 24 18 11 24 23 8 2 17 30 35 9 5 4 7 6 6 3 1 4 1 5 1 7 9 3 4 2 9 15 21 19 17 18 16 16
47 47 44 38 39 41 35 36 36 37 38 37 36 30 29 27 20 25 23 19 13 8 5 7 5 8 1 4 33 27 6 12 16 9 6 3 3 8 5 6 2 4 8 9 7 3 6 9 19 22 19 23 24 16
45 47 49 39 35 38 41 35 34 37 37 36 35 30 30 24 19 21 24 25 18 13 4 16 15 6 17 10 17 23 19 16 12 6 3 5 2 3 5 2 6 11 11 8 9 16 10 17 31 27 26 29 20 9
49 52 42 37 36 39 39 36 35 40 38 35 34 30 24 24 17 20 6 9 22 24 4 4 6 2 21 15 20 22 21 16 7 6 3 4 4 6 3 5 10 18 21 22 9 17 13 16 28 22 33 28 18 8
57 46 34 34 34 36 36 31 31 32 36 33 31 24 23 20 16 8 8 10 5 24 6 6 5 7 25 26 17 15 14 6 4 5 3 4 3 8 5 6 9 3 8 3 17 23 16 28 29 41 33 23 13 12
45 31 31 33 33 36 34 31 28 31 31 32 27 24 20 25 19 12 12 2 12 11 5 1 5 6 20 7 7 7 8 5 5 6 5 4 3 10 8 20 27 27 24 17 13 12 20 28 44 40 29 20 13 14
33 34 34 32 34 38 37 29 23 28 28 24 20 21 16 8 6 6 2 4 5 4 2 1 1 2 14 6 7 5 4 2 4 4 5 7 6 9 12 13 19 18 9 16 14 4 30 50 45 38 26 16 13 16
30 32 31 32 36 36 37 20 20 25 22 20 15 10 6 8 6 1 5 3 6 2 1 1 3 2 10 6 4 5 3 3 4 7 8 6 7 36 33 24 18 18 16 23 40 35 48 46 41 32 21 17 15 16
33 32 34 35 38 35 28 18 20 24 15 8 9 5 9 9 2 5 5 3 1 2 7 7 10 1 3 4 4 4 3 3 3 4 5 5 6 8 29 44 17 22 25 24 22 30 36 36 40 32 24 18 16 14
34 37 34 35 37 26 24 12 17 10 11 7 18 6 6 3 6 3 2 3 6 5 11 10 11 16 3 5 6 6 2 2 5 12 5 5 7 21 15 31 35 25 27 32 31 32 37 35 29 25 23 20 18 16
34 33 32 32 28 21 16 7 7 10 9 14 5 4 5 1 3 5 3 2 3 5 11 10 5 4 4 5 5 3 1 5 4 5 6 7 6 18 42 45 38 31 38 32 35 40 38 31 24 21 28 24 22 22
35 32 36 32 18 18 16 13 5 8 6 4 5 4 3 5 7 7 5 4 5 1 16 22 9 3 5 3 2 4 5 2 6 6 8 4 26 32 45 44 49 45 38 40 43 36 29 28 28 25 24 24 26 28
34 34 20 19 24 15 7 9 7 3 5 4 3 5 6 12 13 20 27 7 3 14 21 12 8 6 2 3 3 2 3 7 6 7 2 29 49 47 44 48 46 41 41 42 35 31 28 26 26 25 21 19 21 25
29 10 5 21 12 4 5 11 9 2 4 4 6 7 13 12 8 11 10 6 9 17 9 7 3 4 5 4 7 11 5 10 4 2 24 44 49 35 50 49 44 38 38 37 33 32 32 31 32 29 21 15 13 13
15 5 11 6 16 6 9 9 3 3 5 6 8 18 32 29 25 10 6 10 13 13 3 2 6 5 4 5 7 6 6 2 1 34 39 24 53 50 53 47 41 39 40 37 34 29 25 25 25 22 18 16 14 10
15 6 5 8 4 6 7 4 5 5 8 11 11 17 8 14 9 10 4 11 13 6 5 3 4 6 5 4 4 3 6 27 31 31 20 43 46 51 46 41 39 37 38 37 34 28 24 26 25 21 19 15 10 9
14 9 8 4 4 3 3 4 4 6 11 13 19 24 18 11 4 6 10 14 10 7 3 4 5 4 4 5 4 11 33 10 25 33 49 51 49 44 40 39 38 35 32 31 27 23 22 18 17 18 15 13 12 12
7 4 9 9 6 4 4 5 6 8 8 7 16 14 19 10 6 6 12 9 6 2 2 4 4 1 10 26 2 34 28 24 49 48 45 43 39 38 37 36 33 30 29 28 31 26 22 21 19 23 13 10 10 13
4 1 4 11 5 10 6 5 8 9 12 10 15 18 6 9 10 12 10 12 3 2 3 9 16 27 28 2 31 7 25 43 49 47 47 40 36 32 34 33 29 25 26 24 26 28 21 21 20 23 10 8 8 8
5 7 7 8 4 5 9 11 10 9 8 13 16 8 9 5 10 13 9 6 4 4 7 16 21 19 20 28 32 22 30 35 35 37 40 35 32 30 28 28 28 30 27 36 24 22 28 27 21 13 6 6 7 8
8 7 2 5 5 5 10 8 7 5 4 6 11 5 2 2 2 17 4 3 1 7 20 19 16 8 11 32 32 20 23 30 38 38 34 31 23 23 27 28 30 31 33 27 17 22 28 21 14 8 7 3 1 6
7 3 4 5 9 8 6 6 8 6 6 4 4 4 4 2 12 4 2 3 8 14 7 8 3 17 20 25 25 21 31 30 30 30 28 24 16 25 33 32 32 35 30 31 25 22 20 14 6 1 3 2 2 3
5 6 7 9 8 6 6 4 5 2 5 5 5 3 3 4 3 2 0 2 9 10 14 5 15 11 14 21 21 28 38 35 33 28 23 26 47 43 39 39 39 37 32 27 25 20 17 11 6 2 4 5 4 6
6 11 12 7 6 7 5 3 3 4 5 4 3 2 3 1 1 1 1 3 7 10 14 29 22 5 5 18 29 34 37 29 35 42 45 42 30 40 40 40 38 39 35 21 16 17 12 8 6 6 5 2 5 10
5 7 14 13 8 7 7 6 4 4 3 4 4 4 2 3 3 2 3 2 3 11 5 28 14 15 18 27 31 27 37 37 39 29 40 34 35 33 29 29 38 34 31 21 14 4 4 6 7 6 4 4 7 13
10 9 6 3 8 8 4 3 4 5 4 9 8 4 3 3 1 2 3 2 7 7 10 23 29 18 19 27 20 25 29 31 32 34 41 40 33 30 30 31 30 30 21 9 3 7 7 5 5 5 6 9 14 20
10 10 10 4 6 2 2 2 2 2 3 5 6 4 3 3 4 4 6 5 8 7 27 30 36 37 18 22 15 14 23 25 26 32 39 48 44 37 31 25 19 13 7 1 6 11 9 8 7 7 9 14 17 18
9 14 7 5 6 5 6 5 5 2 3 3 2 3 5 3 2 7 13 9 11 13 16 25 31 32 34 30 31 29 28 27 20 24 26 38 34 30 19 14 10 1 3 8 13 8 4 4 5 9 11 11 13 14
7 10 5 4 4 2 5 9 5 5 5 4 3 6 4 3 4 8 18 17 16 16 23 27 28 28 29 25 21 23 31 34 21 23 23 24 24 29 24 13 6 4 6 8 7 6 7 8 8 7 8 9 12 16
6 7 11 5 4 5 5 2 3 4 6 6 6 4 5 4 5 6 16 31 24 23 22 29 33 30 20 15 12 10 13 26 27 29 31 31 36 30 17 7 6 4 4 3 5 6 5 3 4 5 7 10 14 17
8 10 8 9 7 5 9 7 6 4 7 7 10 11 12 8 8 8 11 26 32 31 34 30 27 26 20 13 9 20 32 34 35 37 36 25 13 9 9 2 2 2 3 3 1 1 2 3 4 6 9 11 14 17
Wind_Direction_500mb
318 320 322 327 323 322 330 326 324 325 318 314 321 302 306 306 315 304 277 281 269 260 270 276 282 240 234 164 164 222 56 340 38 82 135 221 182 6 345 72 158 160 167 176 183 197 262 99 305 177 183 123 134 127
322 318 324 330 327 324 324 325 329 329 323 317 307 304 284 290 308 319 298 300 291 254 265 265 261 241 244 235 269 197 173 122 145 94 23 63 11 350 81 245 125 188 181 179 175 215 239 21 117 140 164 144 145 136
325 326 322 323 327 318 309 316 323 326 325 321 314 305 305 281 280 296 307 276 322 296 285 272 289 165 236 251 221 181 170 159 114 93 135 96 151 133 212 235 256 193 151 211 150 254 185 168 151 128 134 131 138 122
329 329 324 320 324 325 302 306 315 319 326 323 316 310 308 306 268 272 285 271 276 277 275 270 344 157 0 192 200 219 206 156 140 108 82 128 155 188 247 260 286 223 136 180 258 183 117 204 199 193 179 169 145 121
324 323 323 323 325 324 312 297 306 314 316 318 319 313 307 307 295 286 265 249 255 257 266 302 287 276 224 180 188 197 187 164 134 114 121 206 222 139 268 337 248 198 192 180 224 205 178 190 182 173 176 162 150 125
323 325 320 319 329 328 321 303 298 307 318 319 317 312 310 309 307 314 268 223 219 209 240 303 339 343 151 148 152 166 158 155 139 119 174 231 218 138 258 255 268 227 219 224 207 174 195 188 178 186 166 155 134 96
323 323 321 318 324 326 323 316 308 317 320 319 318 313 319 321 317 291 283 317 105 187 191 301 336 111 157 143 137 148 157 116 120 119 210 266 233 147 263 228 258 144 310 266 148 138 134 164 159 167 162 142 125 95
330 329 323 320 327 324 320 306 314 324 325 323 317 312 304 320 305 310 321 283 140 160 159 256 278 147 175 120 104 118 123 164 171 166 208 217 247 203 251 235 249 266 276 222 160 221 191 174 160 150 145 135 117 110
329 330 320 324 328 319 315 311 319 332 335 325 318 308 317 343 346 345 70 113 185 82 103 240 221 195 168 107 119 105 126 107 179 219 233 166 216 221 230 227 240 207 166 126 154 279 160 156 152 147 142 130 115 113
330 323 325 331 328 323 318 310 320 332 322 327 333 347 355 346 4 155 108 2 20 18 212 265 266 242 173 133 80 113 142 211 220 215 166 219 258 252 257 263 248 228 179 141 133 129 143 144 149 147 135 119 108 106
322 320 329 327 324 320 324 313 325 327 330 348 346 343 344 134 141 11 22 359 55 280 217 231 225 191 83 130 130 207 180 184 261 207 208 223 264 250 242 232 204 163 149 154 177 174 167 164 155 145 133 118 102 98
316 318 319 318 316 315 317 319 328 335 316 322 337 325 295 300 8 327 216 211 218 250 188 175 202 194 101 111 114 184 207 187 258 144 218 255 264 297 177 170 168 159 153 149 149 147 155 145 141 136 127 112 104 94
321 322 320 320 316 305 302 279 327 334 323 326 340 347 355 286 259 253 231 221 252 227 173 153 88 90 107 91 80 147 238 236 128 219 243 224 335 137 143 137 133 152 148 137 136 139 137 131 132 134 123 98 102 86
314 320 323 320 318 297 281 225 307 322 306 331 343 299 191 195 243 220 241 305 253 0 154 141 100 81 93 82 106 204 231 315 248 225 235 167 128 135 146 148 142 139 140 139 140 137 131 129 130 130 121 101 92 77
318 315 314 343 337 314 270 218 246 236 331 327 293 266 239 258 258 279 266 207 185 174 147 107 102 120 115 155 211 270 247 246 237 243 170 138 140 137 145 143 138 138 139 140 135 134 131 128 133 135 124 121 94 79
327 347 10 0 358 291 214 186 173 226 311 287 249 271 278 287 281 341 226 153 154 146 106 114 139 158 179 198 186 207 228 224 256 284 141 148 152 171 153 145 139 138 139 137 128 129 128 120 117 120 122 125 128 94
335 311 3 7 37 54 156 163 159 222 263 262 261 268 269 277 284 280 171 190 186 161 193 155 204 206 152 204 215 207 227 278 105 134 139 166 154 151 146 141 139 139 145 142 137 136 140 142 132 120 112 105 120 148
301 274 324 312 313 165 214 226 212 245 253 256 264 284 281 284 298 316 225 178 170 212 181 251 300 239 225 235 214 319 281 157 150 157 151 151 155 149 146 143 144 144 140 139 140 139 133 142 158 133 107 102 110 111
279 243 222 200 226 264 280 275 231 265 255 263 272 293 293 281 273 309 201 191 227 231 263 269 263 252 297 326 279 267 164 152 157 153 145 145 145 144 143 144 145 145 149 153 148 135 129 129 131 139 130 110 96 102
228 229 225 210 226 300 264 255 237 264 267 280 279 295 315 284 242 188 176 184 200 200 255 236 248 217 255 313 205 166 177 162 150 141 142 146 144 143 145 146 146 146 142 145 159 146 147 143 131 146 136 109 99 113
182 215 178 184 259 268 270 267 253 260 290 277 293 318 282 164 160 189 198 200 234 228 258 265 283 323 317 90 167 153 173 171 162 157 153 154 155 153 149 149 147 150 166 164 165 163 174 160 143 155 150 105 113 114
145 163 170 219 271 265 266 239 254 291 273 277 303 302 272 224 176 183 189 184 230 253 265 300 323 319 7 155 175 173 171 171 167 163 157 153 151 145 145 150 157 152 148 157 152 154 154 141 135 134 88 94 125 105
167 186 200 214 273 256 266 239 261 246 263 277 308 277 277 33 149 151 168 204 136 328 309 310 328 315 134 154 159 142 169 163 158 158 163 158 158 161 161 172 182 176 155 145 147 145 144 143 142 123 92 117 101 105
182 214 247 232 216 270 263 243 230 257 267 289 248 248 104 45 188 343 56 55 356 4 319 310 132 113 140 166 187 193 174 167 160 160 165 167 181 171 160 157 161 163 165 154 154 149 150 155 162 84 66 35 70 30
203 233 226 241 229 241 243 240 220 231 261 239 278 184 119 177 172 139 98 34 9 5 17 126 153 113 145 170 171 171 176 176 173 175 184 174 153 147 147 149 156 158 162 161 161 166 168 179 197 259 319 325 330 338
220 214 202 227 231 203 242 268 15 317 275 304 303 13 184 132 63 236 80 23 10 23 33 136 144 98 187 158 155 159 168 174 173 159 163 164 169 161 160 161 162 164 176 198 196 188 189 220 260 298 315 10 360 345
253 266 226 233 255 277 284 277 185 223 241 310 15 310 235 231 216 129 258 176 28 4 39 184 141 81 143 136 130 152 163 171 173 166 166 181 182 187 187 184 177 172 172 184 183 188 298 283 290 306 336 352 348 345
243 258 240 212 213 238 245 49 11 5 348 338 299 344 309 338 0 266 215 145 342 323 191 186 178 120 135 137 149 145 151 171 176 182 185 183 184 182 175 168 162 157 166 176 314 344 356 14 29 20 0 357 353 348
243 239 203 224 187 54 94 138 156 211 321 329 323 350 4 285 263 248 158 48 42 121 151 154 187 202 140 146 144 156 174 178 169 159 167 152 148 145 153 156 159 182 217 265 29 17 28 23 9 353 346 341 342 344
247 208 216 173 168 190 199 196 207 227 255 221 253 285 297 313 277 207 164 103 101 108 138 148 145 163 169 167 163 158 157 162 177 176 168 161 163 163 171 207 191 193 329 347 348 356 337 310 314 324 331 339 344 348
228 193 122 95 106 139 208 220 185 158 186 207 256 256 267 245 252 230 191 158 145 132 155 155 151 154 157 152 162 180 191 195 203 200 196 190 195 185 174 174 211 256 304 313 317 312 304 300 300 319 340 352 3 6
167 159 138 162 180 178 209 216 256 241 220 215 229 237 242 236 266 233 198 188 176 174 162 167 173 160 162 181 189 175 191 186 184 182 186 177 161 156 162 241 221 250 279 271 269 271 275 306 356 12 15 16 13 10
132 148 138 137 154 195 227 208 219 254 225 231 231 219 204 213 254 217 206 190 193 180 183 178 177 183 188 220 204 168 160 156 154 151 151 167 214 195 158 201 263 273 304 289 283 45 39 29 22 27 23 17 14 11
Wind_Speed_850mb
53 52 52 46 39 41 42 44 43 40 40 33 33 30 26 22 22 26 27 17 22 10 30 31 27 15 4 5 7 4 4 4 6 4 4 3 3 3 1 3 10 10 11 6 9 7 12 2 6 4 10 12 21 17
51 51 47 46 40 39 38 42 44 41 40 35 33 32 32 23 18 23 26 11 21 26 12 13 18 27 23 17 4 5 3 4 4 6 2 3 3 4 2 2 10 6 10 8 13 9 7 6 14 13 16 25 18 19
47 45 42 43 41 41 38 37 39 41 39 36 36 31 30 30 24 21 25 24 18 11 24 23 8 2 17 30 35 9 5 4 7 6 6 3 1 4 1 5 1 7 9 3 4 2 9 15 21 19 17 18 16 16
47 47 44 38 39 41 35 36 36 37 38 37 36 30 29 27 20 25 23 19 13 8 5 7 5 8 1 4 33 27 6 12 16 9 6 3 3 8 5 6 2 4 8 9 7 3 6 9 19 22 19 23 24 16
45 47 49 39 35 38 41 35 34 37 37 36 35 30 30 24 19 21 24 25 18 13 4 16 15 6 17 10 17 23 19 16 12 6 3 5 2 3 5 2 6 11 11 8 9 16 10 17 31 27 26 29 20 9
49 52 42 37 36 39 39 36 35 40 38 35 34 30 24 24 17 20 6 9 22 24 4 4 6 2 21 15 20 22 21 16 7 6 3 4 4 6 3 5 10 18 21 22 9 17 13 16 28 22 33 28 18 8
57 46 34 34 34 36 36 31 31 32 36 33 31 24 23 20 16 8 8 10 5 24 6 6 5 7 25 26 17 15 14 6 4 5 3 4 3 8 5 6 9 3 8 3 17 23 16 28 29 41 33 23 13 12
45 31 31 33 33 36 34 31 28 31 31 32 27 24 20 25 19 12 12 2 12 11 5 1 5 6 20 7 7 7 8 5 5 6 5 4 3 10 8 20 27 27 24 17 13 12 20 28 44 40 29 20 13 14
33 34 34 32 34 38 37 29 23 28 28 24 20 21 16 8 6 6 2 4 5 4 2 1 1 2 14 6 7 5 4 2 4 4 5 7 6 9 12 13 19 18 9 16 14 4 30 50 45 38 26 16 13 16
30 32 31 32 36 36 37 20 20 25 22 20 15 10 6 8 6 1 5 3 6 2 1 1 3 2 10 6 4 5 3 3 4 7 8 6 7 36 33 24 18 18 16 23 40 35 48 46 41 32 21 17 15 16
33 32 34 35 38 35 28 18 20 24 15 8 9 5 9 9 2 5 5 3 1 2 7 7 10 1 3 4 4 4 3 3 3 4 5 5 6 8 29 44 17 22 25 24 22 30 36 36 40 32 24 18 16 14
34 37 34 35 37 26 24 12 17 10 11 7 18 6 6 3 6 3 2 3 6 5 11 10 11 16 3 5 6 6 2 2 5 12 5 5 7 21 15 31 35 25 27 32 31 32 37 35 29 25 23 20 18 16
34 33 32 32 28 21 16 7 7 10 9 14 5 4 5 1 3 5 3 2 3 5 11 10 5 4 4 5 5 3 1 5 4 5 6 7 6 18 42 45 38 31 38 32 35 40 38 31 24 21 28 24 22 22
35 32 36 32 18 18 16 13 5 8 6 4 5 4 3 5 7 7 5 4 5 1 16 22 9 3 5 3 2 4 5 2 6 6 8 4 26 32 45 44 49 45 38 40 43 36 29 28 28 25 24 24 26 28
34 34 20 19 24 15 7 9 7 3 5 4 3 5 6 12 13 20 27 7 3 14 21 12 8 6 2 3 3 2 3 7 6 7 2 29 49 47 44 48 46 41 41 42 35 31 28 26 26 25 21 19 21 25
29 10 5 21 12 4 5 11 9 2 4 4 6 7 13 12 8 11 10 6 9 17 9 7 3 4 5 4 7 11 5 10 4 2 24 44 49 35 50 49 44 38 38 37 33 32 32 31 32 29 21 15 13 13
15 5 11 6 16 6 9 9 3 3 5 6 8 18 32 29 25 10 6 10 13 13 3 2 6 5 4 5 7 6 6 2 1 34 39 24 53 50 53 47 41 39 40 37 34 29 25 25 25 22 18 16 14 10
15 6 5 8 4 6 7 4 5 5 8 11 11 17 8 14 9 10 4 11 13 6 5 3 4 6 5 4 4 3 6 27 31 31 20 43 46 51 46 41 39 37 38 37 34 28 24 26 25 21 19 15 10 9
14 9 8 4 4 3 3 4 4 6 11 13 19 24 18 11 4 6 10 14 10 7 3 4 5 4 4 5 4 11 33 10 25 33 49 51 49 44 40 39 38 35 32 31 27 23 22 18 17 18 15 13 12 12
7 4 9 9 6 4 4 5 6 8 8 7 16 14 19 10 6 6 12 9 6 2 2 4 4 1 10 26 2 34 28 24 49 48 45 43 39 38 37 36 33 30 29 28 31 26 22 21 19 23 13 10 10 13
4 1 4 11 5 10 6 5 8 9 12 10 15 18 6 9 10 12 10 12 3 2 3 9 16 27 28 2 31 7 25 43 49 47 47 40 36 32 34 33 29 25 26 24 26 28 21 21 20 23 10 8 8 8
5 7 7 8 4 5 9 11 10 9 8 13 16 8 9 5 10 13 9 6 4 4 7 16 21 19 20 28 32 22 30 35 35 37 40 35 32 30 28 28 28 30 27 36 24 22 28 27 21 13 6 6 7 8
8 7 2 5 5 5 10 8 7 5 4 6 11 5 2 2 2 17 4 3 1 7 20 19 16 8 11 32 32 20 23 30 38 38 34 31 23 23 27 28 30 31 33 27 17 22 28 21 14 8 7 3 1 6
7 3 4 5 9 8 6 6 8 6 6 4 4 4 4 2 12 4 2 3 8 14 7 8 3 17 20 25 25 21 31 30 30 30 28 24 16 25 33 32 32 35 30 31 25 22 20 14 6 1 3 2 2 3
5 6 7 9 8 6 6 4 5 2 5 5 5 3 3 4 3 2 0 2 9 10 14 5 15 11 14 21 21 28 38 35 33 28 23 26 47 43 39 39 39 37 32 27 25 20 17 11 6 2 4 5 4 6
6 11 12 7 6 7 5 3 3 4 5 4 3 2 3 1 1 1 1 3 7 10 14 29 22 5 5 18 29 34 37 29 35 42 45 42 30 40 40 40 38 39 35 21 16 17 12 8 6 6 5 2 5 10
5 7 14 13 8 7 7 6 4 4 3 4 4 4 2 3 3 2 3 2 3 11 5 28 14 15 18 27 31 27 37 37 39 29 40 34 35 33 29 29 38 34 31 21 14 4 4 6 7 6 4 4 7 13
10 9 6 3 8 8 4 3 4 5 4 9 8 4 3 3 1 2 3 2 7 7 10 23 29 18 19 27 20 25 29 31 32 34 41 40 33 30 30 31 30 30 21 9 3 7 7 5 5 5 6 9 14 20
10 10 10 4 6 2 2 2 2 2 3 5 6 4 3 3 4 4 6 5 8 7 27 30 36 37 18 22 15 14 23 25 26 32 39 48 44 37 31 25 19 13 7 1 6 11 9 8 7 7 9 14 17 18
9 14 7 5 6 5 6 5 5 2 3 3 2 3 5 3 2 7 13 9 11 13 16 25 31 32 34 30 31 29 28 27 20 24 26 38 34 30 19 14 10 1 3 8 13 8 4 4 5 9 11 11 13 14
7 10 5 4 4 2 5 9 5 5 5 4 3 6 4 3 4 8 18 17 16 16 23 27 28 28 29 25 21 23 31 34 21 23 23 24 24 29 24 13 6 4 6 8 7 6 7 8 8 7 8 9 12 16
6 7 11 5 4 5 5 2 3 4 6 6 6 4 5 4 5 6 16 31 24 23 22 29 33 30 20 15 12 10 13 26 27 29 31 31 36 30 17 7 6 4 4 3 5 6 5 3 4 5 7 10 14 17
8 10 8 9 7 5 9 7 6 4 7 7 10 11 12 8 8 8 11 26 32 31 34 30 27 26 20 13 9 20 32 34 35 37 36 25 13 9 9 2 2 2 3 3 1 1 2 3 4 6 9 11 14 17
Wind_Direction_850mb
318 320 322 327 323 322 330 326 324 325 318 314 321 302 306 306 315 304 277 281 269 260 270 276 282 240 234 164 164 222 56 340 38 82 135 221 182 6 345 72 158 160 167 176 183 197 262 99 305 177 183 123 134 127
322 318 324 330 327 324 324 325 329 329 323 317 307 304 284 290 308 319 298 300 291 254 265 265 261 241 244 235 269 197 173 122 145 94 23 63 11 350 81 245 125 188 181 179 175 215 239 21 117 140 164 144 145 136
325 326 322 323 327 318 309 316 323 326 325 321 314 305 305 281 280 296 307 276 322 296 285 272 289 165 236 251 221 181 170 159 114 93 135 96 151 133 212 235 256 193 151 211 150 254 185 168 151 128 134 131 138 122
329 329 324 320 324 325 302 306 315 319 326 323 316 310 308 306 268 272 285 271 276 277 275 270 344 157 0 192 200 219 206 156 140 108 82 128 155 188 247 260 286 223 136 180 258 183 117 204 199 193 179 169 145 121
324 323 323 323 325 324 312 297 306 314 316 318 319 313 307 307 295 286 265 249 255 257 266 302 287 276 224 180 188 197 187 164 134 114 121 206 222 139 268 337 248 198 192 180 224 205 178 190 182 173 176 162 150 125
323 325 320 319 329 328 321 303 298 307 318 319 317 312 310 309 307 314 268 223 219 209 240 303 339 343 151 148 152 166 158 155 139 119 174 231 218 138 258 255 268 227 219 224 207 174 195 188 178 186 166 155 134 96
323 323 321 318 324 326 323 316 308 317 320 319 318 313 319 321 317 291 283 317 105 187 191 301 336 111 157 143 137 148 157 116 120 119 210 266 233 147 263 228 258 144 310 266 148 138 134 164 159 167 162 142 125 95
330 329 323 320 327 324 320 306 314 324 325 323 317 312 304 320 305 310 321 283 140 160 159 256 278 147 175 120 104 118 123 164 171 166 208 217 247 203 251 235 249 266 276 222 160 221 191 174 160 150 145 135 117 110
329 330 320 324 328 319 315 311 319 332 335 325 318 308 317 343 346 345 70 113 185 82 103 240 221 195 168 107 119 105 126 107 179 219 233 166 216 221 230 227 240 207 166 126 154 279 160 156 152 147 142 130 115 113
330 323 325 331 328 323 318 310 320 332 322 327 333 347 355 346 4 155 108 2 20 18 212 265 266 242 173 133 80 113 142 211 220 215 166 219 258 252 257 263 248 228 179 141 133 129 143 144 149 147 135 119 108 106
322 320 329 327 324 320 324 313 325 327 330 348 346 343 344 134 141 11 22 359 55 280 217 231 225 191 83 130 130 207 180 184 261 207 208 223 264 250 242 232 204 163 149 154 177 174 167 164 155 145 133 118 102 98
316 318 319 318 316 315 317 319 328 335 316 322 337 325 295 300 8 327 216 211 218 250 188 175 202 194 101 111 114 184 207 187 258 144 218 255 264 297 177 170 168 159 153 149 149 147 155 145 141 136 127 112 104 94
321 322 320 320 316 305 302 279 327 334 323 326 340 347 355 286 259 253 231 221 252 227 173 153 88 90 107 91 80 147 238 236 128 219 243 224 335 137 143 137 133 152 148 137 136 139 137 131 132 134 123 98 102 86
314 320 323 320 318 297 281 225 307 322 306 331 343 299 191 195 243 220 241 305 253 0 154 141 100 81 93 82 106 204 231 315 248 225 235 167 128 135 146 148 142 139 140 139 140 137 131 129 130 130 121 101 92 77
318 315 314 343 337 314 270 218 246 236 331 327 293 266 239 258 258 279 266 207 185 174 147 107 102 120 115 155 211 270 247 246 237 243 170 138 140 137 145 143 138 138 139 140 135 134 131 128 133 135 124 121 94 79
327 347 10 0 358 291 214 186 173 226 311 287 249 271 278 287 281 341 226 153 154 146 106 114 139 158 179 198 186 207 228 224 256 284 141 148 152 171 153 145 139 138 139 137 128 129 128 120 117 120 122 125 128 94
335 311 3 7 37 54 156 163 159 222 263 262 261 268 269 277 284 280 171 190 186 161 193 155 204 206 152 204 215 207 227 278 105 134 139 166 154 151 146 141 139 139 145 142 137 136 140 142 132 120 112 105 120 148
301 274 324 312 313 165 214 226 212 245 253 256 264 284 281 284 298 316 225 178 170 212 181 251 300 239 225 235 214 319 281 157 150 157 151 151 155 149 146 143 144 144 140 139 140 139 133 142 158 133 107 102 110 111
279 243 222 200 226 264 280 275 231 265 255 263 272 293 293 281 273 309 201 191 227 231 263 269 263 252 297 326 279 267 164 152 157 153 145 145 145 144 143 144 145 145 149 153 148 135 129 129 131 139 130 110 96 102
228 229 225 210 226 300 264 255 237 264 267 280 279 295 315 284 242 188 176 184 200 200 255 236 248 217 255 313 205 166 177 162 150 141 142 146 144 143 145 146 146 146 142 145 159 146 147 143 131 146 136 109 99 113
182 215 178 184 259 268 270 267 253 260 290 277 293 318 282 164 160 189 198 200 234 228 258 265 283 323 317 90 167 153 173 171 162 157 153 154 155 153 149 149 147 150 166 164 165 163 174 160 143 155 150 105 113 114
145 163 170 219 271 265 266 239 254 291 273 277 303 302 272 224 176 183 189 184 230 253 265 300 323 319 7 155 175 173 171 171 167 163 157 153 151 145 145 150 157 152 148 157 152 154 154 141 135 134 88 94 125 105
167 186 200 214 273 256 266 239 261 246 263 277 308 277 277 33 149 151 168 204 136 328 309 310 328 315 134 154 159 142 169 163 158 158 163 158 158 161 161 172 182 176 155 145 147 145 144 143 142 123 92 117 101 105
182 214 247 232 216 270 263 243 230 257 267 289 248 248 104 45 188 343 56 55 356 4 319 310 132 113 140 166 187 193 174 167 160 160 165 167 181 171 160 157 161 163 165 154 154 149 150 155 162 84 66 35 70 30
203 233 226 241 229 241 243 240 220 231 261 239 278 184 119 177 172 139 98 34 9 5 17 126 153 113 145 170 171 171 176 176 173 175 184 174 153 147 147 149 156 158 162 161 161 166 168 179 197 259 319 325 330 338
220 214 202 227 231 203 242 268 15 317 275 304 303 13 184 132 63 236 80 23 10 23 33 136 144 98 187 158 155 159 168 174 173 159 163 164 169 161 160 161 162 164 176 198 196 188 189 220 260 298 315 10 360 345
253 266 226 233 255 277 284 277 185 223 241 310 15 310 235 231 216 129 258 176 28 4 39 184 141 81 143 136 130 152 163 171 173 166 166 181 182 187 187 184 177 172 172 184 183 188 298 283 290 306 336 352 348 345
243 258 240 212 213 238 245 49 11 5 348 338 299 344 309 338 0 266 215 145 342 323 191 186 178 120 135 137 149 145 151 171 176 182 185 183 184 182 175 168 162 157 166 176 314 344 356 14 29 20 0 357 353 348
243 239 203 224 187 54 94 138 156 211 321 329 323 350 4 285 263 248 158 48 42 121 151 154 187 202 140 146 144 156 174 178 169 159 167 152 148 145 153 156 159 182 217 265 29 17 28 23 9 353 346 341 342 344
247 208 216 173 168 190 199 196 207 227 255 221 253 285 297 313 277 207 164 103 101 108 138 148 145 163 169 167 163 158 157 162 177 176 168 161 163 163 171 207 191 193 329 347 348 356 337 310 314 324 331 339 344 348
228 193 122 95 106 139 208 220 185 158 186 207 256 256 267 245 252 230 191 158 145 132 155 155 151 154 157 152 162 180 191 195 203 200 196 190 195 185 174 174 211 256 304 313 317 312 304 300 300 319 340 352 3 6
167 159 138 162 180 178 209 216 256 241 220 215 229 237 242 236 266 233 198 188 176 174 162 167 173 160 162 181 189 175 191 186 184 182 186 177 161 156 162 241 221 250 279 271 269 271 275 306 356 12 15 16 13 10
132 148 138 137 154 195 227 208 219 254 225 231 231 219 204 213 254 217 206 190 193 180 183 178 177 183 188 220 204 168 160 156 154 151 151 167 214 195 158 201 263 273 304 289 283 45 39 29 22 27 23 17 14 11